Regional Weather Roundup
Issued by NWS

Home | Current Version | Previous Version | Graphics & Text | Print | Product List | Glossary On
Versions: 1 2 3 4 5 6 7 8 9 10 11 12 13 14 15 16 17 18 19 20 21 22 23 24 25 26 27 28 29 30 31 32 33 34 35 36 37 38 39 40 41 42 43 44 45 46 47 48 49 50
000
ASUS43 KFSD 240802
RWRSD

WEATHER ROUNDUP FOR SOUTH DAKOTA
NATIONAL WEATHER SERVICE SIOUX FALLS SD
300 AM CDT THU JUL 24 2014

NOTE: "FAIR" INDICATES FEW OR NO CLOUDS BELOW 12,000 FEET WITH NO
SIGNIFICANT WEATHER AND/OR OBSTRUCTIONS TO VISIBILITY.


SDZ001>005-009-010-012>017-240900-
NORTHWEST AND NORTH CENTRAL SOUTH DAKOTA

CITY           SKY/WX    TMP DP  RH WIND       PRES   REMARKS
BUFFALO          N/A     68  56  65 E17       29.83F
FAITH            N/A     68  55  63 SE30G41   29.92F
MOBRIDGE       PTCLDY    68  57  68 SE20      30.03F
$$

SDZ012>016-024>037-041>051-057-063-072>074-240900-
SOUTHWEST AND SOUTH CENTRAL SOUTH DAKOTA

CITY           SKY/WX    TMP DP  RH WIND       PRES   REMARKS
RAPID CTY ARPT MOCLDY    68  62  81 E7        29.98F
PIERRE         CLOUDY    69  59  70 SE17      30.03F
CUSTER         CLOUDY    69  61  75 NE6       30.13F
ELLSWORTH AFB  MOCLDY    69  63  81 SE12      29.97F
PHILIP         CLOUDY    69  58  67 E8        30.00F
PINE RIDGE     PTCLDY    71  63  75 S20G31    30.00F
WINNER         PTSUNNY   70  58  65 SE14      30.07F
$$

SDZ004>011-016>023-039-040-240900-
NORTHEAST SOUTH DAKOTA

CITY           SKY/WX    TMP DP  RH WIND       PRES   REMARKS
ABERDEEN       CLEAR     59  57  93 SE6       30.11F
WATERTOWN      CLEAR     63  54  72 SE5       30.16F
SISSETON         N/A     57  56  96 CALM      30.14S
$$

SDZ017-020-022-023-036>040-048>070-240900-
SOUTHEAST SOUTH DAKOTA

CITY           SKY/WX    TMP DP  RH WIND       PRES   REMARKS
SIOUX FALLS    CLEAR     64  55  72 E7        30.16F
HURON          MOCLDY    64  54  69 SE8       30.11F
CHAMBERLAIN    CLOUDY    67  59  75 SE12G20   30.08F
MITCHELL       CLEAR     65  59  81 SE8       30.12F
YANKTON        CLEAR     63  59  88 E6        30.13F
$$

ABBREVIATIONS USED IN REMARKS
   TC - TEMPERATURE IN CELSIUS
  WCI - WIND CHILL INDEX
   HX - HEAT INDEX
  VSB - VISIBILITY




USA.gov is the U.S. government's official web portal to all federal, state and local government web resources and services.